Погода в Волчихе

Погода в Волчихе : погода сейчас, прогноз погоды и архив. Всё, что Вы хотите узнать о погоде в Волчихе!

Хотите узнать прогноз погоды в Волчихе? Тогда Вам сюда: Погода в Волчихе

Поиск расширенной информации на нашем сайте:

Другие новости

Новости СМИ2

Главная страница сайта

Новости сайта

02.10.2013

Напоминаем, что на нашем новом сайте вы можете получить высокодетализированные прогнозы погоды по пунктам России, СНГ и мира (включающие важные для авиации метеовеличины, такие как направление и скорость ветра, видимость, явления погоды, количество и форма облачности, нижняя и верхняя граница облачности), а также ознакомиться с разнообразными материалами по авиационной метеорологии и подборкой полезных ссылок на эту тему.

Сайт Метеоцентр.Азия посвящён разработке технологий оптимизации авиаметеорологического обслуживания, включая проектирование и перспективное создание нескольких автоматизированных авиаметеорологических систем:
- система выпуска высокодетальных прогностических карт явлений погоды для нижнего воздушного пространства по России и ближнему зарубежью;
- система верификации прогнозов TAF (выпускаемых синоптиками официальных АМСГ РФ и ближнего зарубежья) и AUTOTAF (выпускаемых сайтом Метеоцентр.Азия) - выявление ошибок, онлайн-сопоставление с фактической погодой METAR, автоматическое внесение коррективов в прогнозы при резком отклонении фактической погоды от прогноза, подсчёт оправдываемости прогнозов по элементам и в целом;
- система обработки, анализа и отображения авиаметеорологической информации для применения провайдерами метеорологической информации.

Рекомендуем: Модифицированные штукатурные смеси.

Погода в Волчихе - сегодня

Время (UTC), дата Ветер
(°,м/с) 
Видим.   Явления Облачность Т
(°С)
Тd
(°С)
f(%) Тe
(°С)
Pmin
(гПа)
dP
(гПа)
Po
(мм)
O2
(г/м3)
Тmin Tmax R s Состояние
почвы
06 21.06.17 230 (ЮЗ) 20000 м  {гроза, ливн. осадки}  4/3 1000 м средняя 
[Cu med, cong|Ac As]
+23.7 +17.8 70 +38  1004.5  1.2  736  269           
09 21.06.17 280 (З) 20000 м    8/8 930 м 
[Cu med, cong]
+26.3 +18.1 61 +41  1004.1  -0.2  736  266           
12 21.06.17 010 (С) 20000 м    3/3 1000 м 
[Cu med, cong]
+27.2 +15.7 49 +38  1003.9  -0.2  735  266    +27.3     
15 21.06.17 040 (СВ) 20000 м    3/1 1000 м верхняя 
[Sc|Ci fib]
+22.2 +17.2 73 +36  1005  0.7  736  270           
18 21.06.17 100 (В) 20000 м    ясно 
+18.4 +16.3 88 +31  1005.6  0.3  736  274           
21 21.06.17 050 (СВ) 20000 м    8/0 средняя 
[Ac As]
+15.8 +14.8 94 +26  1005.1  -0.8  736  277           
00 22.06.17 110 (В) 20000 м    10/0 средняя 
[Ac und]
+18.5 +16.3 87 +31  1004.2  -0.6  735  274  +15.4        влажная 
03 22.06.17 250 (З) 1{13}  10 км  слаб. ливневой дождь{гроза}  10/10 700 м кучево-дожд. 
[Cb cap]
+18.7 +15.4 81 +30  1006.4  2.2  737  275           
06 22.06.17 140 (ЮВ) 20000 м  {гроза, ливн. осадки}  6/3 1000 м верхняя 
[Cu med, cong|Ci fib]
+23.7 +16.7 65 +36  1004.2  -1.7  736  269           
09 22.06.17 250 (З) 20000 м    3/0 верхняя 
[Ci fib]
+28.1 +12.7 39 +34  1003.5  -0.4  735  266           
12 22.06.17 240 (ЮЗ) 20000 м    3/0 
[Cu med, cong]
+27.9 +15.7 47 +38  1004  0.5  736  266    +28.2     
15 22.06.17 250 (З) 20000 м    3/3 1000 м 
[Sc diur, vesp]
+23.5 +18.9 75 +40  1004.7  0.4  736  269           
18 22.06.17 030 (СВ) 20000 м    ясно 
+18 +14.8 82 +28  1006.4  1.1  737  275           
21 22.06.17 010 (С) 20000 м    1/0 верхняя 
[Ci fib]
+14.1 +13.5 96 +22  1006.9  0.1  737  280           
00 23.06.17 020 (С) 20000 м    1/0 верхняя 
[Ci fib]
+16.6 +15.5 93 +28  1007.3  0.7  737  277  +12.7        влажная 
03 23.06.17 340 (С) 20000 м    8/0 средняя, верхняя 
[Ac trans|Cc]
+24 +13.7 53 +31  1006.8  0.1  737  270           
06 23.06.17 030 (СВ) 20000 м    10/1 1000 м средняя, верхняя 
[Cu hum|Ac lent|Ci]
+25.6 +12.8 45 +31  1006.3  -0.4  737  269           
09 23.06.17 010 (С) 20000 м    8/0 средняя, верхняя 
[Ac cast|Ci fib]
+26.9 +14.9 48 +36  1005.3  -0.9  736  267           
12 23.06.17 030 (СВ) 20000 м    8/0 верхняя 
[Ci sp]
+25.7 +15.2 52 +35  1003.4  -1.9  735  268    +27.1       
15 23.06.17 040 (СВ) 20000 м    6/0 средняя, верхняя 
[Ac lent|Ci fib]
+21.7 +15.2 67 +31  1003.7  735  271           
18 23.06.17 060 (СВ) 20000 м    8/0 средняя 
[Ac As]
+19.9 +14.2 70 +29  1003.3  -0.5  735  273           
21 23.06.17 060 (СВ) 20000 м    10/0 средняя 
[Ac und]
+18.5 +16.3 87 +31  1002.7  -0.7  734  273           
00 24.06.17 140 (ЮВ) 20000 м    10/0 средняя 
[Ac und]
+20.2 +15.2 73 +30  1001.9  -0.7  734  272  +18.5        влажная 
03 24.06.17 110 (В) 20000 м    10/0 средняя 
[Ac und]
+24.6 +16.7 61 +37  999.7  -1.8  732  267           
06 24.06.17 130 (ЮВ) 20000 м    8/0 верхняя 
[Ci]
+30.3 +17.6 47 +45  997.4  -1.8  731  261           
Время (UTC), дата Ветер
(°,м/с) 
Видим.   Явления Облачность Т
(°С)
Тd
(°С)
f(%) Тe
(°С)
Pmin
(гПа)
dP
(гПа)
Po
(мм)
O2
(г/м3)
Тmin Tmax R s Состояние
почвы

Для получения пояснительной информации подведите курсор к названию столбца.

ПОГОДА в Волчихе - архив

Всё, что Вы хотите узнать о погоде в Волчихе - удобно и подробно!

Выберите нужную дату (начиная с 1 января 2015* года) и нажмите кнопку "Найти".
Будут отображены архивные сводки погоды по пункту Волчиха, начиная с указанной даты.


Отображать данные в формате CSV (для использования в таблицах Excel)


Внимание! Наш архив погоды предназначен исключительно для личного некоммерческого использования в познавательных целях. Если Вам необходимы официальные справки о состоянии погоды (для производственных, юридических, коммерческих и т.п. целей), обращайтесь в органы Росгидромета.

*Примечание: данная дата относится к архиву по метеостанциям СССР (Россия, СНГ, Балтия).
Архив по метеостанциям Зарубежной Европы и Азии (кроме Китая) хранится 10 дней, по другим регионам земного шара (Китай, Африка, Америка, Австралия, Океания) - 1 день.

Волчиха - район местоположения метеостанции


Название, широта, долгота, высота метеостанции:
Волчиха 52°ш. 80.4°д. 208 м над ур. моря [Российская Федерация]

Дополнительная информация

В oтличие oт бoльшинства пoгoдных сайтoв мы публикуем пoдрoбную метеoинфoрмацию в детальнoм прoфессиoнальнoм фoрмате.

Характеристики температуры и влажнoсти вoздуха измеряются на высoте 2 м в тени вдали oт зданий и деревьев.
Скoрoсть ветра измеряется на высoте 10 м (на урoвне рoста челoвека скoрoсть ветра ниже в 1.5-2 раза). Если метеoстанция нахoдится в гoрoде или в лесу, тo скoрoсть ветра занижена на 2-4 м/с пo сравнению с oткрытым местoм. Скoрoсть ветра над акватoриями крупных рек и oзёр, а также на вершинах хoлмoв на 2-5 м/с выше, чем в oбычных услoвиях.
Атмoсфернoе давление в разных тoчках местнoсти мoжет значительнo oтличаться oт давления на метеoстанции, в зависимoсти oт услoвий рельефа (при пoдъёме на 10 м давление пoнижается примернo на 1 мм рт.ст.).